Dewpoint
69 71 70 70 71 71 70 72 71 71 71 71 71 71 71 72 71 71 72 72 72 72 73 74 74 73 71 72 72 74 76 75 75 76 77 77 77 77 76 77 77 75 76 75 74 74 75 74 74 75 75 74 73 73 72 73 75 75 77 76 74 75 75 74 72 71 72 72 70 67 68 70 67 71 69 67 67 71 72 72 74 71 72 73 72
69 70 71 70 70 70 69 70 71 71 70 70 71 70 70 71 72 72 71 72 73 72 73 72 73 73 72 73 74 73 75 77 74 75 76 76 76 73 74 77 77 76 76 76 75 73 74 75 74 73 75 74 72 72 72 71 71 71 73 73 73 75 75 73 73 72 71 72 71 71 70 70 68 72 70 69 69 72 70 70 70 71 73 73 73
70 71 71 71 71 69 69 70 70 70 69 69 69 68 69 70 71 71 70 69 72 72 72 71 73 75 74 74 75 75 76 75 75 75 76 76 76 73 72 75 76 75 74 75 74 74 74 74 72 73 71 72 73 71 72 72 72 72 72 73 73 73 74 75 73 72 71 71 72 69 69 72 70 69 71 70 73 72 73 70 68 69 71 73 72
71 72 72 71 70 70 70 70 69 69 68 68 68 68 68 69 70 70 69 68 69 72 72 72 73 76 74 75 76 76 75 75 75 75 76 76 75 76 75 75 75 75 75 74 74 74 74 74 73 72 72 73 74 72 73 73 73 73 72 73 75 74 75 75 75 74 72 71 73 71 70 71 71 70 70 72 70 71 71 72 72 72 73 71 71
72 72 72 72 72 72 70 69 69 69 68 67 68 68 68 68 70 70 69 68 69 70 73 74 74 75 73 74 75 76 75 75 75 74 74 74 75 74 75 76 75 75 75 75 75 75 75 74 73 74 74 73 73 72 71 72 72 72 71 72 74 74 74 75 75 75 74 73 72 73 74 73 72 72 73 70 70 71 74 74 73 74 75 72 69
71 71 71 72 73 73 72 71 69 69 69 68 68 68 68 69 69 70 69 69 70 70 70 71 72 74 74 74 74 75 76 76 76 75 74 74 75 74 75 75 75 75 75 74 75 75 74 74 74 74 74 73 72 72 73 73 72 71 71 72 73 74 75 75 75 75 74 73 73 72 74 71 72 73 74 73 70 70 72 73 75 76 76 74 71
73 72 71 72 72 72 71 72 71 70 70 70 69 69 69 69 68 68 70 70 70 69 69 71 72 73 74 75 75 75 76 75 76 77 76 76 75 75 73 74 74 75 75 74 74 74 74 73 74 74 74 74 73 73 74 74 72 72 73 74 73 74 73 73 74 74 73 72 71 72 71 72 72 71 74 75 74 73 72 72 73 74 75 75 73
74 73 73 72 72 71 71 72 72 72 72 73 72 70 70 69 69 69 70 70 69 68 68 69 70 72 73 74 76 77 77 76 77 77 76 75 75 74 74 74 74 74 74 74 73 73 73 72 71 73 74 75 75 74 75 75 75 73 73 74 75 75 73 71 73 73 72 71 70 68 70 72 73 72 73 74 73 74 74 73 72 72 72 74 73
74 74 74 73 73 73 73 72 74 75 75 75 74 73 71 71 71 71 71 70 68 69 71 69 70 72 72 74 75 76 75 75 76 76 76 76 75 74 74 73 73 73 73 72 72 72 73 72 71 71 74 76 77 77 76 76 73 74 75 76 76 75 75 73 73 73 72 71 71 72 71 72 72 72 69 70 72 72 74 73 73 72 72 72 72
74 74 74 75 75 75 75 75 75 75 75 75 75 74 72 72 71 71 71 71 72 73 73 72 71 71 72 74 76 75 75 75 76 76 76 76 75 73 73 74 73 72 72 72 71 71 71 70 70 74 76 76 77 78 77 76 76 75 75 75 75 76 75 74 74 73 72 71 69 69 68 68 66 69 69 70 73 75 73 73 72 71 72 71 71
75 75 75 76 75 75 75 75 75 75 75 75 75 75 74 73 73 74 73 73 73 74 73 72 71 71 71 71 73 72 73 74 74 69 70 72 74 74 74 74 74 73 71 72 73 72 70 70 71 72 75 76 76 77 77 77 78 77 76 76 77 77 73 74 73 73 72 70 69 69 67 68 68 69 70 70 72 72 72 73 72 71 70 69 68
74 74 75 75 74 74 75 75 74 72 73 74 74 74 75 75 75 74 73 72 74 73 72 72 72 72 72 71 70 70 71 74 68 67 68 68 73 74 73 73 72 72 72 71 71 71 71 70 69 68 70 72 72 74 75 76 75 76 76 76 76 76 75 75 74 73 73 71 70 69 69 70 71 71 70 71 73 72 73 73 72 72 71 70 69
74 73 73 73 73 74 73 72 71 71 71 71 72 72 73 74 75 74 72 73 73 74 74 73 72 72 72 73 71 71 72 70 66 67 67 67 67 72 71 72 73 71 72 73 72 72 72 72 71 69 68 72 73 73 75 76 77 77 76 76 77 76 72 71 73 74 73 73 71 71 71 71 71 73 73 74 74 73 73 71 72 71 71 70 69
73 72 72 71 71 71 71 70 70 70 70 70 70 70 71 72 74 74 74 75 74 73 74 74 73 73 73 73 74 72 72 63 63 63 64 65 66 69 71 71 72 72 73 72 71 72 73 74 73 72 72 72 74 74 74 75 75 75 75 76 76 75 78 74 72 73 74 71 73 73 73 74 74 75 76 75 74 72 71 70 71 70 70 70 71
70 70 69 70 70 70 70 70 70 70 70 71 71 71 72 73 72 73 74 73 74 74 75 74 73 71 70 69 70 69 61 58 59 60 61 62 64 68 71 70 71 71 73 74 74 72 73 73 73 72 73 73 74 74 73 74 74 74 75 74 74 75 76 75 76 74 73 72 72 73 74 76 77 76 75 75 74 73 72 72 72 71 71 71 72
68 68 68 69 69 70 70 71 71 70 70 71 70 71 71 71 71 71 71 72 72 72 72 72 71 70 70 70 70 70 66 57 57 57 58 60 63 68 70 71 71 72 72 73 73 73 72 72 72 73 73 73 74 73 73 74 74 74 74 74 75 76 75 73 67 69 77 75 73 73 74 77 70 78 77 72 73 74 73 71 72 71 70 68 66
67 68 68 68 68 68 69 69 69 70 70 70 69 69 69 69 71 72 70 70 70 70 70 70 71 70 70 70 70 69 65 58 55 55 56 57 63 70 70 70 71 71 71 72 72 72 73 73 73 73 72 73 72 66 67 71 73 73 73 73 73 74 73 69 67 66 65 63 62 63 63 63 64 62 62 63 72 71 72 69 67 65 66 64 63
66 67 67 67 67 68 68 68 68 68 68 67 67 69 70 70 70 71 71 71 70 70 71 71 71 71 71 70 70 67 63 59 54 54 55 57 65 69 70 70 70 71 71 71 72 72 72 73 73 72 72 73 70 64 63 70 73 74 73 72 73 73 73 70 69 69 65 65 65 64 64 64 63 64 63 63 63 68 72 68 64 63 62 61 60
66 66 66 66 67 67 67 67 67 67 67 66 68 68 69 70 71 71 71 70 69 70 71 70 67 67 67 67 66 65 64 61 54 53 54 56 66 71 70 70 71 71 70 70 71 72 73 73 72 71 68 65 59 61 62 68 71 73 74 72 72 72 73 71 71 70 71 71 71 69 68 68 70 68 68 68 69 69 68 63 60 60 59 57 57
65 67 67 66 67 67 67 67 67 66 67 67 67 68 69 70 69 69 69 70 71 70 69 67 65 65 65 65 64 64 63 62 58 52 52 54 58 68 68 68 67 68 68 69 69 70 72 72 70 60 57 56 55 54 55 57 63 69 72 71 71 72 74 73 73 73 72 72 71 69 68 68 67 66 65 63 63 66 64 62 60 59 59 59 59
65 66 67 67 67 66 67 67 67 67 67 67 68 68 68 68 69 69 68 68 68 67 65 65 64 64 63 64 64 64 63 61 60 52 51 52 54 62 66 65 65 66 67 67 68 68 67 68 67 61 56 55 54 53 53 55 59 65 68 71 71 72 72 72 71 69 71 70 70 69 68 67 64 63 62 62 59 60 61 62 62 61 62 60 59
65 65 66 66 66 67 67 67 67 66 66 66 66 66 67 67 67 66 66 65 64 64 63 63 62 62 62 61 61 61 63 61 62 56 52 50 51 54 63 64 63 66 65 64 64 65 64 65 65 61 55 54 53 53 52 54 58 64 65 55 56 62 70 70 72 72 71 71 69 67 65 65 65 61 58 58 57 59 59 60 59 59 61 62 61
62 62 62 62 62 62 63 63 64 65 65 65 64 64 66 67 66 66 64 63 63 62 62 62 61 60 60 60 60 59 60 60 59 60 55 51 50 51 52 58 58 65 64 62 63 64 64 64 64 62 55 50 49 51 53 55 61 61 53 54 56 58 66 68 68 68 69 68 67 67 68 66 66 67 66 60 58 62 59 60 60 61 61 60 58
59 58 58 57 57 57 56 56 57 59 61 63 65 65 65 66 66 65 65 64 63 62 62 63 61 60 59 59 59 59 59 60 58 57 58 55 51 50 51 52 55 59 63 62 63 63 63 63 62 53 49 47 48 50 53 58 61 53 52 55 58 62 65 68 66 68 67 66 66 66 66 66 64 62 60 61 59 63 60 59 60 61 61 59 58
57 55 55 54 54 53 54 55 56 56 57 59 61 62 64 64 63 64 63 62 62 62 62 61 59 59 57 58 56 56 56 55 54 55 56 57 54 52 52 53 54 55 63 62 62 61 57 51 50 50 51 51 51 52 55 58 56 55 54 57 62 65 66 67 68 66 65 65 65 65 66 66 66 66 64 64 63 62 61 59 58 58 58 58 57
59 58 56 55 54 52 51 51 53 54 55 57 59 60 61 63 62 63 61 61 62 62 62 61 59 57 56 55 56 54 55 54 54 55 56 56 55 54 53 54 57 58 58 58 56 55 54 53 54 54 56 57 62 64 63 63 59 60 58 60 63 64 66 67 67 66 65 65 64 63 64 64 64 63 64 63 62 60 61 60 58 57 56 56 54
61 60 59 57 59 59 58 53 51 51 53 53 55 57 59 60 60 61 61 61 61 62 62 61 58 57 55 53 53 54 53 54 54 54 55 54 53 55 55 56 56 56 58 59 58 60 61 62 61 58 57 58 61 61 62 61 61 63 63 64 66 67 67 68 67 66 66 64 63 63 61 62 61 63 62 62 61 60 60 59 55 54 55 55 55
57 57 54 55 56 56 58 57 54 52 54 54 54 55 56 56 56 58 58 60 61 60 58 56 54 53 51 51 52 52 52 53 53 53 52 52 52 53 53 56 55 55 55 56 57 59 62 64 62 65 65 65 63 63 62 62 62 64 63 63 64 65 66 65 65 66 65 64 63 61 62 62 61 61 60 58 57 57 57 55 54 53 52 55 54
58 53 53 53 54 57 51 52 52 53 54 55 54 53 53 55 57 56 55 55 55 54 53 56 57 56 56 57 55 54 54 53 53 47 49 45 48 50 52 52 50 52 54 50 54 61 63 61 61 60 60 61 61 60 59 59 60 61 61 62 64 64 64 64 62 62 62 62 61 61 61 61 62 60 58 57 56 56 57 57 57 56 55 54 51
58 56 56 54 53 53 52 51 55 54 50 52 53 53 51 46 48 55 54 51 48 44 48 54 54 53 53 54 56 56 54 53 46 41 40 40 41 41 42 41 41 47 49 48 52 60 61 60 60 59 60 59 59 59 58 59 60 60 60 59 58 58 59 60 59 60 61 62 63 62 62 60 59 58 56 55 55 54 56 57 57 57 55 52 52
61 59 60 59 58 58 55 54 55 57 56 54 55 55 54 53 42 43 50 49 44 41 41 42 45 48 57 53 52 48 47 44 41 41 42 42 42 42 41 42 42 42 44 55 60 59 59 58 57 57 58 57 57 56 57 56 57 56 56 55 55 55 56 56 57 58 60 61 60 61 60 59 58 56 54 54 54 53 54 54 55 55 52 52 51
58 57 58 59 60 60 59 58 58 57 57 57 57 56 55 54 54 45 42 45 43 40 40 40 40 41 42 48 56 55 50 44 41 42 42 43 43 42 43 43 43 44 47 46 60 57 56 56 56 55 55 55 55 55 54 53 53 53 53 53 53 55 56 56 56 56 55 55 55 55 55 55 55 54 53 53 52 52 52 52 52 52 51 51 51
58 58 59 60 59 59 57 59 59 58 57 57 56 56 55 54 53 53 54 42 41 41 40 40 40 41 41 40 40 41 41 42 41 41 41 41 42 42 46 45 45 46 52 57 57 56 55 55 54 55 54 53 54 54 55 54 54 55 55 55 54 53 53 55 57 56 56 56 56 55 54 53 53 52 52 52 52 53 52 51 51 51 51 50 51
57 59 60 59 59 58 57 57 57 58 59 59 58 56 56 56 54 54 53 52 54 51 43 40 42 44 40 40 41 42 41 42 42 42 41 42 42 44 47 55 45 46 50 56 55 54 54 53 53 54 54 55 54 54 54 55 54 54 54 54 55 55 55 55 55 53 52 52 51 52 52 51 52 52 53 50 50 50 50 49 49 50 49 49 49
55 57 59 59 58 57 55 54 53 55 56 57 59 59 59 59 57 56 54 55 54 53 51 55 48 41 50 47 41 41 41 42 42 42 43 44 46 47 49 59 55 54 53 54 54 53 52 52 52 53 52 53 54 54 53 54 53 52 51 51 51 51 52 52 52 53 52 52 51 51 50 50 49 49 50 50 50 49 48 48 48 48 48 48 48
54 54 55 57 57 56 55 55 54 53 53 54 57 56 57 58 58 57 56 56 55 54 53 54 54 49 43 41 40 41 41 42 42 42 43 44 46 48 56 54 53 52 52 52 52 51 51 51 51 51 51 51 52 52 52 52 52 52 51 51 50 50 50 50 50 50 50 49 49 49 49 49 48 48 48 48 48 47 48 47 45 45 46 47 47
53 52 53 55 55 56 56 56 57 58 58 54 53 54 55 56 55 55 57 57 57 55 53 55 55 54 53 53 50 43 42 42 43 43 44 45 47 52 53 52 51 51 50 50 50 50 50 49 50 50 50 50 50 50 50 50 50 51 50 50 50 49 49 49 49 50 49 47 46 46 46 46 46 47 46 47 46 45 44 44 44 45 45 45 44
55 54 55 56 57 57 57 57 56 58 57 54 56 54 53 54 54 54 54 55 56 56 55 54 53 53 53 54 53 51 51 46 45 46 47 47 50 52 52 51 51 50 49 49 49 50 49 49 49 49 49 49 49 49 49 48 48 47 47 48 48 48 47 47 48 47 46 44 43 44 43 42 42 43 42 43 43 44 43 43 42 42 43 43 42
56 57 57 58 58 55 54 54 55 55 55 54 52 52 52 53 53 53 53 53 54 54 55 54 54 53 52 53 54 53 53 51 49 49 50 50 51 50 50 50 49 49 49 49 48 48 47 47 47 48 48 48 49 49 48 47 47 47 47 46 45 45 45 43 44 44 43 43 43 44 43 43 42 41 40 40 41 41 42 41 40 40 40 40 40
56 55 55 53 54 55 54 54 54 54 53 53 52 52 51 51 51 52 52 53 53 53 53 54 54 54 52 52 52 51 50 49 49 49 50 50 50 50 49 48 48 48 48 48 47 47 46 46 47 46 47 47 47 47 47 47 47 46 46 45 44 43 42 42 42 41 41 41 41 40 40 40 40 41 40 40 40 40 39 38 38 39 38 39 39
55 56 55 56 55 53 53 52 52 52 53 53 52 51 50 51 51 51 51 51 51 52 53 53 55 53 51 53 48 48 51 49 49 49 49 49 49 49 49 48 48 47 47 47 47 46 45 46 45 45 45 46 46 45 45 45 44 44 44 44 44 42 41 41 41 40 40 40 40 39 39 38 38 38 36 37 38 38 38 38 38 37 38 39 39
56 55 55 55 56 55 54 53 54 54 54 54 54 53 51 50 50 51 50 51 50 52 54 54 52 51 48 44 45 46 49 49 49 49 49 49 49 48 48 48 48 48 46 45 46 46 45 46 44 44 44 44 44 44 43 43 43 43 42 43 43 42 41 40 41 41 40 39 40 39 39 39 38 38 37 37 38 38 37 37 37 37 37 38 38
58 56 57 56 55 55 54 54 54 54 54 53 53 52 52 52 51 51 50 51 50 51 53 52 50 50 50 47 48 48 51 50 50 49 48 48 48 48 47 46 46 46 47 46 45 45 44 44 44 43 43 43 44 43 42 42 42 41 40 42 41 41 41 40 39 39 39 39 38 39 38 37 37 36 36 37 37 37 37 37 37 37 38 39 39
57 56 57 57 56 56 56 55 54 53 53 53 53 53 53 53 52 52 51 51 52 52 52 50 50 51 50 48 49 49 50 49 49 48 48 48 47 46 45 46 45 45 45 46 45 44 44 43 42 43 44 43 44 44 42 41 40 41 41 41 40 40 39 39 39 39 38 37 37 37 36 36 36 35 36 37 37 37 37 38 38 38 38 39 40
56 56 55 54 55 55 55 56 53 52 52 52 53 52 53 52 52 52 51 51 52 51 50 50 49 50 49 50 50 50 49 49 49 48 47 46 46 45 44 45 45 46 44 43 44 45 43 43 43 43 43 42 42 42 42 42 42 40 40 40 40 38 38 39 39 38 38 38 36 37 36 35 35 35 35 36 37 37 37 37 37 39 40 40 40
54 54 53 53 53 53 51 51 53 52 51 50 51 51 50 50 51 51 50 51 51 50 51 50 49 49 49 49 50 48 47 48 47 46 46 45 44 44 44 44 44 44 43 42 44 43 42 41 41 41 41 41 41 41 41 41 42 42 41 40 40 38 38 38 39 38 37 38 36 36 36 36 35 36 37 37 36 37 38 39 40 40 41 41 41
52 52 52 51 51 51 51 53 53 51 50 48 48 48 49 49 49 50 50 50 49 52 51 48 48 47 48 48 47 47 47 46 45 45 45 45 45 44 43 44 43 43 42 42 42 41 42 41 41 40 40 39 40 41 40 39 40 40 39 39 39 39 38 38 38 38 37 37 37 36 36 36 36 37 36 37 38 38 39 39 40 41 41 41 41
52 51 51 51 51 50 50 51 50 51 51 50 50 50 50 50 50 49 50 52 53 51 50 50 50 49 49 48 48 47 47 48 47 46 45 44 44 43 43 44 42 41 42 41 41 41 40 40 40 40 40 40 40 39 40 40 40 40 39 39 39 39 39 40 39 38 38 38 37 37 37 36 36 36 37 38 39 39 39 39 40 39 40 41 42
49 48 48 49 48 48 48 48 49 49 49 49 50 50 49 49 49 48 49 49 49 49 49 47 47 47 47 47 47 46 45 45 45 44 43 43 43 44 43 42 42 41 40 41 40 41 41 39 39 39 39 40 40 39 38 39 38 38 39 39 40 40 36 37 38 38 38 38 37 37 37 37 37 38 39 39 39 39 39 40 40 40 41 42 42
47 47 47 46 47 48 48 47 46 47 47 46 46 47 47 48 48 48 46 47 47 48 48 47 47 46 46 45 45 45 45 44 43 43 42 42 42 41 41 42 41 41 40 40 39 39 39 39 40 39 40 40 39 39 38 38 38 37 39 39 38 35 35 36 38 38 38 38 38 37 38 38 38 38 39 39 39 40 40 40 41 42 42 42 42
49 48 47 47 46 46 45 44 44 45 46 46 45 45 45 45 45 46 45 46 45 46 47 46 46 46 47 47 46 45 45 44 43 42 42 41 41 41 41 40 40 40 40 39 39 38 38 38 37 37 37 39 39 38 38 37 37 38 38 38 36 34 34 35 37 35 35 35 38 38 38 39 39 39 39 38 39 39 41 41 41 41 42 41 42